TimeMST,TemperatureF,Dew PointF,Humidity,Sea Level PressureIn,VisibilityMPH,Wind Direction,Wind SpeedMPH,Gust SpeedMPH,PrecipitationIn,Events,Conditions,WindDirDegrees,DateUTC
12:15 AM,12.2,3.2,67,30.10,10.0,West,5.8,-,N/A,,Clear,260,2013-12-10 07:15:00
12:35 AM,8.6,1.4,73,30.10,10.0,West,5.8,-,N/A,,Clear,270,2013-12-10 07:35:00
12:55 AM,12.2,3.2,67,30.10,10.0,WNW,5.8,-,N/A,,Clear,290,2013-12-10 07:55:00
1:15 AM,10.4,3.2,73,30.09,10.0,West,8.1,-,N/A,,Clear,270,2013-12-10 08:15:00
1:35 AM,14.0,5.0,67,30.10,10.0,West,9.2,-,N/A,,Clear,270,2013-12-10 08:35:00
1:55 AM,14.0,5.0,67,30.10,10.0,West,6.9,-,N/A,,Clear,270,2013-12-10 08:55:00
2:15 AM,12.2,5.0,73,30.09,10.0,WNW,9.2,-,N/A,,Clear,290,2013-12-10 09:15:00
2:35 AM,17.6,5.0,58,30.10,10.0,West,5.8,-,N/A,,Clear,270,2013-12-10 09:35:00
2:55 AM,14.0,5.0,67,30.10,10.0,SW,9.2,-,N/A,,Clear,230,2013-12-10 09:55:00
3:15 AM,14.0,5.0,67,30.10,10.0,SW,11.5,-,N/A,,Clear,230,2013-12-10 10:15:00
3:35 AM,12.2,5.0,73,30.09,10.0,WSW,10.4,-,N/A,,Clear,250,2013-12-10 10:35:00
3:55 AM,14.0,5.0,67,30.09,10.0,West,9.2,-,N/A,,Clear,260,2013-12-10 10:55:00
4:15 AM,14.0,5.0,67,30.08,10.0,West,12.7,-,N/A,,Clear,280,2013-12-10 11:15:00
4:35 AM,15.8,6.8,68,30.08,10.0,WSW,15.0,-,N/A,,Clear,250,2013-12-10 11:35:00
4:55 AM,19.4,8.6,63,30.09,10.0,WSW,13.8,-,N/A,,Clear,250,2013-12-10 11:55:00
5:15 AM,19.4,8.6,63,30.08,10.0,WSW,9.2,-,N/A,,Clear,250,2013-12-10 12:15:00
5:35 AM,14.0,5.0,67,30.08,10.0,WSW,9.2,-,N/A,,Clear,240,2013-12-10 12:35:00
5:55 AM,14.0,5.0,67,30.09,10.0,WSW,8.1,-,N/A,,Clear,240,2013-12-10 12:55:00
6:15 AM,12.2,3.2,67,30.08,10.0,WSW,6.9,-,N/A,,Clear,250,2013-12-10 13:15:00
6:35 AM,14.0,5.0,67,30.07,10.0,SW,10.4,-,N/A,,Clear,230,2013-12-10 13:35:00
6:55 AM,12.2,3.2,67,30.06,10.0,WSW,8.1,-,N/A,,Clear,240,2013-12-10 13:55:00
7:15 AM,14.0,5.0,67,30.06,10.0,WSW,10.4,-,N/A,,Clear,240,2013-12-10 14:15:00
7:35 AM,14.0,3.2,62,30.06,10.0,WSW,9.2,-,N/A,,Clear,240,2013-12-10 14:35:00
7:55 AM,14.0,5.0,67,30.05,10.0,SW,9.2,-,N/A,,Clear,230,2013-12-10 14:55:00
8:15 AM,17.6,6.8,63,30.06,10.0,West,9.2,-,N/A,,Clear,260,2013-12-10 15:15:00
8:35 AM,19.4,6.8,58,30.05,10.0,West,5.8,-,N/A,,Clear,270,2013-12-10 15:35:00
8:55 AM,21.2,8.6,58,30.05,10.0,West,3.5,-,N/A,,Clear,270,2013-12-10 15:55:00
9:15 AM,24.8,10.4,54,30.04,10.0,SW,4.6,-,N/A,,Clear,220,2013-12-10 16:15:00
9:35 AM,26.6,10.4,51,30.04,10.0,Calm,Calm,-,N/A,,Clear,0,2013-12-10 16:35:00
9:55 AM,28.4,10.4,47,30.03,10.0,SW,5.8,-,N/A,,Clear,230,2013-12-10 16:55:00
10:15 AM,32.0,12.2,44,30.03,10.0,SW,3.5,-,N/A,,Clear,230,2013-12-10 17:15:00
10:35 AM,33.8,12.2,41,30.01,10.0,SSE,5.8,-,N/A,,Scattered Clouds,150,2013-12-10 17:35:00
10:55 AM,35.6,12.2,38,30.00,10.0,SSE,4.6,-,N/A,,Clear,150,2013-12-10 17:55:00
11:15 AM,39.2,12.2,33,29.98,10.0,South,12.7,-,N/A,,Clear,190,2013-12-10 18:15:00
11:35 AM,37.4,10.4,33,29.96,10.0,South,11.5,-,N/A,,Clear,180,2013-12-10 18:35:00
11:55 AM,41.0,14.0,33,29.95,10.0,SSW,13.8,-,N/A,,Scattered Clouds,200,2013-12-10 18:55:00
12:15 PM,42.8,12.2,29,29.95,10.0,SW,9.2,-,N/A,,Scattered Clouds,220,2013-12-10 19:15:00
12:35 PM,42.8,12.2,29,29.96,10.0,WNW,10.4,-,N/A,,Scattered Clouds,290,2013-12-10 19:35:00
12:55 PM,44.6,14.0,29,29.96,10.0,North,9.2,-,N/A,,Mostly Cloudy,350,2013-12-10 19:55:00
1:15 PM,44.6,14.0,29,29.96,10.0,NNW,10.4,-,N/A,,Overcast,340,2013-12-10 20:15:00
1:35 PM,37.4,14.0,38,29.96,10.0,North,5.8,-,N/A,,Overcast,350,2013-12-10 20:35:00
1:55 PM,39.2,14.0,36,29.96,10.0,North,10.4,-,N/A,,Overcast,350,2013-12-10 20:55:00
2:15 PM,37.4,12.2,36,29.97,10.0,NNW,9.2,-,N/A,,Overcast,340,2013-12-10 21:15:00
2:35 PM,41.0,19.4,42,29.97,10.0,NW,21.9,28.8,N/A,,Overcast,320,2013-12-10 21:35:00
2:55 PM,41.0,17.6,39,29.97,10.0,NW,20.7,28.8,N/A,,Mostly Cloudy,320,2013-12-10 21:55:00
3:15 PM,41.0,17.6,39,29.98,10.0,NW,17.3,20.7,N/A,,Overcast,320,2013-12-10 22:15:00
3:35 PM,39.2,17.6,42,29.99,10.0,NNW,17.3,25.3,N/A,,Overcast,330,2013-12-10 22:35:00
3:55 PM,37.4,17.6,45,30.01,10.0,NNW,18.4,-,N/A,,Overcast,340,2013-12-10 22:55:00
4:15 PM,37.4,19.4,48,30.02,10.0,North,18.4,26.5,N/A,,Overcast,350,2013-12-10 23:15:00
4:35 PM,37.4,21.2,52,30.03,10.0,NW,17.3,24.2,N/A,,Overcast,320,2013-12-10 23:35:00
4:55 PM,35.6,19.4,52,30.04,10.0,NNW,15.0,23.0,N/A,,Overcast,330,2013-12-10 23:55:00
5:15 PM,33.8,19.4,56,30.05,10.0,NNW,15.0,-,N/A,,Mostly Cloudy,340,2013-12-11 00:15:00
5:35 PM,33.8,19.4,56,30.06,10.0,NNW,15.0,-,N/A,,Clear,330,2013-12-11 00:35:00
5:55 PM,33.8,19.4,56,30.07,10.0,NNW,15.0,23.0,N/A,,Mostly Cloudy,330,2013-12-11 00:55:00
6:15 PM,33.8,19.4,56,30.08,10.0,NNW,16.1,-,N/A,,Mostly Cloudy,330,2013-12-11 01:15:00
6:35 PM,33.8,19.4,56,30.09,10.0,NNW,15.0,-,N/A,,Clear,340,2013-12-11 01:35:00
6:55 PM,32.0,19.4,60,30.10,10.0,North,9.2,-,N/A,,Clear,350,2013-12-11 01:55:00
7:15 PM,28.4,17.6,64,30.11,10.0,North,6.9,-,N/A,,Clear,360,2013-12-11 02:15:00
7:35 PM,28.4,17.6,64,30.13,10.0,North,12.7,-,N/A,,Clear,350,2013-12-11 02:35:00
7:55 PM,28.4,19.4,69,30.14,10.0,North,12.7,-,N/A,,Clear,350,2013-12-11 02:55:00
8:15 PM,28.4,19.4,69,30.16,10.0,NNW,11.5,-,N/A,,Clear,340,2013-12-11 03:15:00
8:35 PM,28.4,19.4,69,30.17,10.0,NNW,15.0,-,N/A,,Clear,340,2013-12-11 03:35:00
8:50 PM,28.4,19.4,69,30.18,10.0,NNW,17.3,-,N/A,,Clear,330,2013-12-11 03:50:00
9:15 PM,28.4,19.4,69,30.19,10.0,NNW,18.4,24.2,N/A,,Clear,330,2013-12-11 04:15:00
9:35 PM,28.4,19.4,69,30.21,10.0,NNW,17.3,23.0,N/A,,Clear,340,2013-12-11 04:35:00
9:55 PM,26.6,19.4,74,30.23,10.0,NNW,15.0,-,N/A,,Clear,340,2013-12-11 04:55:00
10:15 PM,26.6,19.4,74,30.24,10.0,North,17.3,-,N/A,,Clear,350,2013-12-11 05:15:00
10:35 PM,24.8,19.4,80,30.25,10.0,North,16.1,-,N/A,,Clear,360,2013-12-11 05:35:00
10:55 PM,24.8,17.6,74,30.27,10.0,NNE,16.1,-,N/A,,Clear,20,2013-12-11 05:55:00
11:15 PM,23.0,17.6,80,30.28,10.0,North,11.5,-,N/A,,Clear,10,2013-12-11 06:15:00
11:35 PM,21.2,17.6,86,30.29,10.0,North,8.1,-,N/A,,Clear,360,2013-12-11 06:35:00
11:55 PM,19.4,15.8,86,30.29,10.0,North,11.5,-,N/A,,Clear,10,2013-12-11 06:55:00